Location: Lombard
(41.8800°N, 88.0080°W)
Time: 20:08:50
(UTC-05:00)

Transit 2A - Pass Details

Date: 07 February 2023
Orbit: 591 x 964 km, 66.7° (Epoch: 29 March)

Event Time Altitude Azimuth Distance (km) Brightness Sun altitude
Rises 23:29:09 0° 336° (NNW) 3,493 - -62.0°
Reaches altitude 10° 23:31:55 10° 346° (NNW) 2,599 - -62.2°
Maximum altitude 23:37:18 31° 48° (NE) 1,593 - -62.5°
Drops below altitude 10° 23:42:51 10° 109° (ESE) 2,696 - -62.7°
Sets 23:45:45 0° 119° (ESE) 3,642 - -62.8°
